998  
ASUS43 KMPX 071910  
RWRMN  
WEATHER ROUNDUP FOR MINNESOTA  
NATIONAL WEATHER SERVICE TWIN CITIES/CHANHASSEN MN  
200 PM CDT SUN AUG 07 2022  
 
NOTE: "FAIR" INDICATES FEW OR NO CLOUDS BELOW 12,000 FEET WITH NO  
SIGNIFICANT WEATHER AND/OR S TO VISIBILITY
. N/A MEANS  
CURRENT SKY AND/OR WEATHER CONDITIONS ARE NOT AVAILABLE.  
 
MNZ060>063-068>070-072000-  
TWIN CITIES METRO  
 
CITY SKY/WX TMP DP RH WIND PRES REMARKS
 
TWIN CITIES CLOUDY 73 63 70 N10 30.03R  
ST PAUL CLOUDY 73 63 70 NE7 30.03S  
CRYSTAL CLOUDY 73 62 68 N7 30.02S  
LAKEVILLE CLOUDY 66 66 100 CALM 30.04R FOG  
EDEN PRAIRIE CLOUDY 71 62 73 NE7 30.02S  
SOUTH ST PAUL CLOUDY 71 63 77 N7 30.02F  
LAKE ELMO CLOUDY 70 63 78 NE3 30.04S  

 
MNZ001>005-007-008-013>017-022>024-027-028-072000-  
NORTHWEST MINNESOTA  
 
CITY SKY/WX TMP DP RH WIND PRES REMARKS
 
BEMIDJI LGT RAIN 63 56 79 CALM 30.12F  
HALLOCK CLOUDY 64 54 68 CALM 30.13F  
ROSEAU N/A 64 54 68 CALM 30.14F  
WARROAD PTSUNNY 63 54 72 E3 30.15S  
THIEF RVR FALL LGT RAIN 63 54 72 N9 30.13F  
CROOKSTON CLOUDY 64 55 72 N7 30.12F  
FOSSTON CLOUDY 61 55 82 N12G17 30.11F  
DETROIT LAKES CLOUDY 66 55 68 N10 30.11F  
MOORHEAD CLOUDY 63 55 77 N9 30.11F  
PARK RAPIDS CLOUDY 66 55 67 N7 30.10F  
MAHNOMEN LGT RAIN 61 58 87 N10 30.12F  

 
MNZ006-009>011-018-025>026-072000-  
NORTH CENTRAL MINNESOTA  
 
CITY SKY/WX TMP DP RH WIND PRES REMARKS
 
BAUDETTE CLOUDY 66 51 58 CALM 30.15S  
INTL FALLS CLOUDY 66 53 63 N3 30.12F  
WASKISH CLOUDY 66 55 68 CALM 30.14R  
BIG FORK CLOUDY 68 57 68 CALM 30.16F  
LONGVILLE PTSUNNY 64 57 77 NE5 30.09F  
GRAND RAPIDS LGT RAIN 62 57 83 VRB3 30.13F  
CRANE LAKE CLOUDY 64 50 59 CALM 30.14F  
ORR N/A 64 54 68 CALM 30.11S  
COOK CLOUDY 64 52 63 CALM 30.13S  
WALKER CLOUDY 63 57 83 N6 30.11F  

 
MNZ012-019>021-037-072000-  
NORTHEAST MINNESOTA  
 
CITY SKY/WX TMP DP RH WIND PRES REMARKS
 
DULUTH CLOUDY 62 47 57 E13G21 30.11F  
ELY DRIZZLE 64 48 55 CALM 30.14F  
HIBBING LGT RAIN 63 56 78 NE3 30.12S  
EVELETH LGT RAIN 64 54 68 SE3 30.14S  
DULUTH HARBOR PTSUNNY 59 50 72 NE21G29 30.11S  
TWO HARBORS CLOUDY 61 46 59 E14 30.12F  
GRAND MARAIS N/A 57 47 69 E12 30.15S  
G MARAIS ARPRT PTSUNNY 63 48 59 E5 30.14F  

 
MNZ029>031-032-039>041-046>048-054>057-064-072000-  
WEST CENTRAL MINNESOTA  
 
CITY SKY/WX TMP DP RH WIND PRES REMARKS
 
FERGUS FALLS PTSUNNY 72 57 60 N7 30.07R  
WHEATON N/A 70 55 60 N13 30.09F  
MORRIS PTSUNNY 72 57 60 N9 30.07S  
ALEXANDRIA CLOUDY 71 60 68 N12 30.08F  
ELBOW LAKE CLOUDY 68 59 71 N10G16 30.09S  
WADENA PTSUNNY 70 57 64 N9 30.09F  
GLENWOOD CLOUDY 70 63 78 CALM 30.07F  
APPLETON CLOUDY 72 61 68 N10 30.06R  
BENSON CLOUDY 70 63 78 NE8 30.06S  
ORTONVILLE N/A 70 61 73 N10 30.07S  
MADISON LGT RAIN 70 63 78 N12 30.08S  
WILLMAR CLOUDY 73 63 68 N6 30.07F  

 
MNZ033>034-036-042>043-049>051-058-059-072000-  
CENTRAL MINNESOTA  
 
CITY SKY/WX TMP DP RH WIND PRES REMARKS
 
ST CLOUD CLOUDY 71 63 75 VRB5 30.04S  
SAUK CENTRE CLOUDY 70 61 72 N6 30.05F  
PAYNESVILLE CLOUDY 72 63 73 NE6 30.05F  
AITKIN PTSUNNY 66 55 68 NE9 30.07F  
PINE RIVER PTSUNNY 66 57 72 NE3 30.13S  
BRAINERD CLOUDY 70 56 61 NE9 30.08F  
STAPLES MOSUNNY 72 57 60 N8 30.08F  
LONG PRAIRIE CLOUDY 70 59 68 N7 30.07F  
LITTLE FALLS N/A 70 61 73 NE3 30.06S  
LITCHFIELD PTSUNNY 72 64 78 N6 30.04R  
BUFFALO PTSUNNY 70 63 78 E10 30.00F  
MAPLE LAKE CLOUDY 73 59 60 N7 30.04F  
HUTCHINSON CLOUDY 76 66 71 N6 30.03F  

 
MNZ037-044-045-052-053-072000-  
EAST CENTRAL MINNESOTA  
 
CITY SKY/WX TMP DP RH WIND PRES REMARKS
 
PRINCETON RAIN 70 63 78 NE5 30.04F  
MORA PTSUNNY 70 57 64 NE6 30.05F  
CAMBRIDGE CLOUDY 73 59 60 E6 30.02F  
RUSH CITY CLOUDY 71 60 68 NE6 30.04F  
MOOSE LAKE CLOUDY 68 52 56 NE7 30.09S  
HINCKLEY MOCLDY 73 59 60 NE7 30.05F  
CLOQUET N/A 63 46 55 E7 30.10S  
MCGREGOR CLOUDY 66 54 63 E5 30.09F  

 
MNZ071>073-080-081-089-090-097-098-072000-  
SOUTHWEST MINNESOTA  
 
CITY SKY/WX TMP DP RH WIND PRES REMARKS
 
MONTEVIDEO CLOUDY 70 64 83 N10 30.05S  
GRANITE FALLS CLOUDY 75 65 69 N5 30.05F  
CANBY CLOUDY 68 62 82 NW8 30.08R  
MARSHALL CLOUDY 72 64 76 N10 30.04F  
REDWOOD FALLS PTSUNNY 76 65 68 NE8 30.02S  
OLIVIA PTSUNNY 75 63 64 NE6 30.02F  
WINDOM CLOUDY 70 66 88 NE8 30.02F  
WORTHINGTON CLOUDY 70 67 90 NE13 30.03F  
JACKSON CLOUDY 70 70 100 NE9 30.03S  
TRACY CLOUDY 75 62 64 NE8 30.03F  
SLAYTON CLOUDY 68 65 90 NE5 30.04F  

 
MNZ065>067-074>077-082>085-091>093-072000-  
SOUTH CENTRAL MINNESOTA  
 
CITY SKY/WX TMP DP RH WIND PRES REMARKS
 
MANKATO CLOUDY 73 68 84 NE7 30.02F  
NEW ULM CLOUDY 70 64 83 NE5 30.02F  
ST JAMES CLOUDY 72 68 88 N6 30.01F  
FAIRMONT CLOUDY 76 71 85 N8 30.02S  
GLENCOE PTSUNNY 74 65 73 NE9 30.00F  
FARIBAULT CLOUDY 70 66 88 N5 30.03S  
OWATONNA CLOUDY 73 72 94 CALM 30.01F  
WASECA CLOUDY 75 70 83 CALM 30.03F  
ALBERT LEA CLOUDY 75 73 94 E3 30.01F  

 
MNZ078>079-086>088-094>096-072000-  
SOUTHEAST MINNESOTA  
 
CITY SKY/WX TMP DP RH WIND PRES REMARKS
 
ROCHESTER PTSUNNY 78 73 84 SW3 30.02S  
RED WING CLOUDY 70 66 88 N6 30.00F FOG  
STANTON CLOUDY 70 66 87 CALM 30.01S  
DODGE CENTER N/A 79 72 78 CALM 30.02F  
WINONA CLOUDY 73 73 100 CALM 30.00S  
AUSTIN CLOUDY 77 73 88 NE3 30.00F  
PRESTON PTSUNNY 78 73 84 W5 30.03S  

 
ABBREVIATIONS USED IN REMARKS  
TC - TEMPERATURES IN CELSIUS  
WCI - WIND CHILL INDEX  
HX - HEAT INDEX  
VSB - VISIBILITY  

 
 
 
CLICK HERE TO GO TO PREVIOUS BULLETINS.

The Nexlab MN Page Main Text Page